Time,TemperatureF,DewpointF,PressureIn,WindDirection,WindDirectionDegrees,WindSpeedMPH,WindSpeedGustMPH,Humidity,HourlyPrecipIn,Conditions,Clouds,dailyrainin,SolarRadiationWatts/m^2,SoftwareType,DateUTC
2013-11-04 00:01:00,51.4,48.0,30.21,NE,46,0.0,0.0,88,0.00,,,0.95,0.0,meteohub,2013-11-04 05:01:00,
2013-11-04 00:02:00,51.4,48.0,30.21,NE,45,0.0,0.0,88,0.00,,,0.95,0.0,meteohub,2013-11-04 05:02:00,
2013-11-04 00:07:00,51.3,47.5,30.21,NE,46,0.0,0.0,87,0.00,,,0.00,0.0,meteohub,2013-11-04 05:07:00,
2013-11-04 00:12:00,50.9,47.5,30.21,NE,45,0.0,0.0,88,0.00,,,0.00,0.0,meteohub,2013-11-04 05:12:00,
2013-11-04 00:17:00,50.9,47.8,30.21,NE,46,0.0,0.0,89,0.00,,,0.00,0.0,meteohub,2013-11-04 05:17:00,
2013-11-04 00:22:00,50.7,47.8,30.21,NE,46,0.0,0.0,90,0.00,,,0.00,0.0,meteohub,2013-11-04 05:22:00,
2013-11-04 00:27:00,50.5,47.7,30.21,NE,46,0.0,0.0,90,0.00,,,0.00,0.0,meteohub,2013-11-04 05:27:00,
2013-11-04 00:32:00,50.5,48.0,30.21,NE,45,0.0,0.0,91,0.00,,,0.00,0.0,meteohub,2013-11-04 05:32:00,
2013-11-04 00:37:00,50.5,48.0,30.22,NE,46,0.0,0.0,91,0.00,,,0.00,0.0,meteohub,2013-11-04 05:37:00,
2013-11-04 00:42:00,50.4,47.8,30.22,NE,46,0.0,0.0,91,0.00,,,0.00,0.0,meteohub,2013-11-04 05:42:00,
2013-11-04 00:47:00,50.4,47.8,30.22,NE,45,0.0,0.0,91,0.00,,,0.00,0.0,meteohub,2013-11-04 05:47:00,
2013-11-04 00:52:00,50.2,48.0,30.22,NE,46,0.0,0.0,92,0.00,,,0.00,0.0,meteohub,2013-11-04 05:52:00,
2013-11-04 00:57:00,50.0,47.5,30.22,NE,46,0.0,0.0,91,0.00,,,0.00,0.0,meteohub,2013-11-04 05:57:00,
2013-11-04 01:02:00,50.0,47.8,30.22,NE,46,0.0,0.0,92,0.00,,,0.00,0.0,meteohub,2013-11-04 06:02:00,
2013-11-04 01:07:00,49.8,47.7,30.22,NE,46,0.0,0.0,92,0.00,,,0.00,0.0,meteohub,2013-11-04 06:07:00,
2013-11-04 01:12:00,49.8,47.7,30.22,NE,45,0.0,0.0,92,0.00,,,0.00,0.0,meteohub,2013-11-04 06:12:00,
2013-11-04 01:17:00,49.6,47.5,30.22,NE,46,0.0,0.0,92,0.00,,,0.00,0.0,meteohub,2013-11-04 06:17:00,
2013-11-04 01:22:00,49.6,47.5,30.22,NE,46,0.0,0.0,92,0.00,,,0.00,0.0,meteohub,2013-11-04 06:22:00,
2013-11-04 01:27:00,49.6,47.5,30.22,NE,46,0.0,0.0,92,0.00,,,0.00,0.0,meteohub,2013-11-04 06:27:00,
2013-11-04 01:32:00,49.6,47.5,30.22,NE,46,0.0,0.0,92,0.00,,,0.00,0.0,meteohub,2013-11-04 06:32:00,
2013-11-04 01:37:00,49.5,47.3,30.22,NE,45,0.0,0.0,92,0.00,,,0.00,0.0,meteohub,2013-11-04 06:37:00,
2013-11-04 01:42:00,49.5,47.5,30.22,NE,45,0.0,0.0,93,0.00,,,0.00,0.0,meteohub,2013-11-04 06:42:00,
2013-11-04 01:47:00,49.5,47.5,30.22,NE,46,0.0,0.0,93,0.00,,,0.00,0.0,meteohub,2013-11-04 06:47:00,
2013-11-04 01:52:00,49.5,47.5,30.22,NE,46,0.0,0.0,93,0.00,,,0.00,0.0,meteohub,2013-11-04 06:52:00,
2013-11-04 01:57:00,49.5,47.5,30.22,NE,46,0.0,0.0,93,0.00,,,0.00,0.0,meteohub,2013-11-04 06:57:00,
2013-11-04 02:02:00,49.8,47.8,30.22,NE,46,0.0,0.0,93,0.00,,,0.00,0.0,meteohub,2013-11-04 07:02:00,
2013-11-04 02:07:00,50.0,48.0,30.22,NE,45,0.0,0.0,93,0.00,,,0.00,0.0,meteohub,2013-11-04 07:07:00,
2013-11-04 02:12:00,50.2,48.0,30.22,NE,46,0.0,1.0,92,0.00,,,0.00,0.0,meteohub,2013-11-04 07:12:00,
2013-11-04 02:17:00,50.4,48.2,30.23,NNW,331,0.0,1.0,92,0.00,,,0.00,0.0,meteohub,2013-11-04 07:17:00,
2013-11-04 02:22:00,50.7,48.2,30.23,NNW,331,0.0,1.0,91,0.00,,,0.00,0.0,meteohub,2013-11-04 07:22:00,
2013-11-04 02:28:00,51.1,48.2,30.23,WNW,292,0.0,2.0,90,0.00,,,0.00,0.0,meteohub,2013-11-04 07:28:00,
2013-11-04 02:33:00,51.1,48.2,30.23,WNW,291,0.0,2.0,90,0.00,,,0.00,0.0,meteohub,2013-11-04 07:33:00,
2013-11-04 02:38:00,51.3,48.4,30.23,WNW,292,0.0,2.0,90,0.00,,,0.00,0.0,meteohub,2013-11-04 07:38:00,
2013-11-04 02:43:00,51.1,48.0,30.23,WNW,292,0.0,0.0,89,0.00,,,0.00,0.0,meteohub,2013-11-04 07:43:00,
2013-11-04 02:48:00,51.1,47.7,30.23,WNW,294,0.0,1.0,88,0.00,,,0.00,0.0,meteohub,2013-11-04 07:48:00,
2013-11-04 02:53:00,51.3,47.8,30.23,NW,322,0.0,2.0,88,0.00,,,0.00,0.0,meteohub,2013-11-04 07:53:00,
2013-11-04 02:58:00,51.4,47.7,30.23,NW,305,0.0,2.0,87,0.00,,,0.00,0.0,meteohub,2013-11-04 07:58:00,
2013-11-04 03:03:00,51.4,47.5,30.23,NNW,345,0.0,2.0,86,0.00,,,0.00,0.0,meteohub,2013-11-04 08:03:00,
2013-11-04 03:08:00,51.4,47.5,30.23,WNW,300,0.0,3.0,86,0.00,,,0.00,0.0,meteohub,2013-11-04 08:08:00,
2013-11-04 03:13:00,51.4,47.5,30.23,NNE,21,0.0,3.0,86,0.00,,,0.00,0.0,meteohub,2013-11-04 08:13:00,
2013-11-04 03:18:00,51.6,47.5,30.23,NW,313,0.0,3.0,86,0.00,,,0.00,0.0,meteohub,2013-11-04 08:18:00,
2013-11-04 03:23:00,51.6,47.5,30.23,WNW,302,0.0,2.0,86,0.00,,,0.00,0.0,meteohub,2013-11-04 08:23:00,
2013-11-04 03:28:00,51.4,47.5,30.23,NNE,33,0.0,2.0,86,0.00,,,0.00,0.0,meteohub,2013-11-04 08:28:00,
2013-11-04 03:33:00,51.6,47.3,30.23,West,267,0.0,2.0,85,0.00,,,0.00,0.0,meteohub,2013-11-04 08:33:00,
2013-11-04 03:38:00,51.8,47.5,30.23,NNE,30,1.0,5.0,85,0.00,,,0.00,0.0,meteohub,2013-11-04 08:38:00,
2013-11-04 03:43:00,52.2,47.8,30.24,NE,42,1.0,5.0,85,0.00,,,0.00,0.0,meteohub,2013-11-04 08:43:00,
2013-11-04 03:48:00,52.2,47.5,30.24,NW,314,0.0,5.0,84,0.00,,,0.00,0.0,meteohub,2013-11-04 08:48:00,
2013-11-04 03:53:00,52.2,47.1,30.24,North,349,0.0,2.0,83,0.00,,,0.00,0.0,meteohub,2013-11-04 08:53:00,
2013-11-04 03:58:00,52.2,47.1,30.24,NNE,33,0.0,4.0,83,0.00,,,0.00,0.0,meteohub,2013-11-04 08:58:00,
2013-11-04 04:03:00,52.3,47.3,30.24,NE,42,1.0,4.0,83,0.00,,,0.00,0.0,meteohub,2013-11-04 09:03:00,
2013-11-04 04:08:00,52.3,47.3,30.24,NE,35,0.0,4.0,83,0.00,,,0.00,0.0,meteohub,2013-11-04 09:08:00,
2013-11-04 04:13:00,52.3,47.3,30.24,NE,41,0.0,6.0,83,0.00,,,0.00,0.0,meteohub,2013-11-04 09:13:00,
2013-11-04 04:18:00,52.3,47.3,30.25,NW,307,0.0,7.0,83,0.00,,,0.00,0.0,meteohub,2013-11-04 09:18:00,
2013-11-04 04:23:00,52.2,47.1,30.25,NNE,31,0.0,7.0,83,0.00,,,0.00,0.0,meteohub,2013-11-04 09:23:00,
2013-11-04 04:28:00,52.2,47.1,30.24,NE,48,3.0,7.0,83,0.00,,,0.00,0.0,meteohub,2013-11-04 09:28:00,
2013-11-04 04:33:00,52.2,47.5,30.25,NE,55,4.0,5.0,84,0.00,,,0.00,0.0,meteohub,2013-11-04 09:33:00,
2013-11-04 04:38:00,52.0,46.9,30.25,NNE,12,0.0,6.0,83,0.00,,,0.00,0.0,meteohub,2013-11-04 09:38:00,
2013-11-04 04:43:00,52.0,47.3,30.25,North,10,0.0,6.0,84,0.00,,,0.00,0.0,meteohub,2013-11-04 09:43:00,
2013-11-04 04:48:00,51.8,46.8,30.25,WNW,295,0.0,6.0,83,0.00,,,0.00,0.0,meteohub,2013-11-04 09:48:00,
2013-11-04 04:53:00,51.8,46.8,30.25,North,11,0.0,4.0,83,0.00,,,0.00,0.0,meteohub,2013-11-04 09:53:00,
2013-11-04 04:58:00,51.6,46.9,30.25,NE,49,0.0,4.0,84,0.00,,,0.00,0.0,meteohub,2013-11-04 09:58:00,
2013-11-04 05:03:00,51.6,46.9,30.25,NNW,336,0.0,6.0,84,0.00,,,0.00,0.0,meteohub,2013-11-04 10:03:00,
2013-11-04 05:08:00,51.4,46.8,30.26,NNW,344,1.0,6.0,84,0.00,,,0.00,0.0,meteohub,2013-11-04 10:08:00,
2013-11-04 05:13:00,51.4,46.8,30.26,NNE,30,0.0,6.0,84,0.00,,,0.00,0.0,meteohub,2013-11-04 10:13:00,
2013-11-04 05:18:00,51.4,46.8,30.26,NE,38,2.0,4.0,84,0.00,,,0.00,0.0,meteohub,2013-11-04 10:18:00,
2013-11-04 05:23:00,51.4,47.1,30.26,North,0,0.0,4.0,85,0.00,,,0.00,0.0,meteohub,2013-11-04 10:23:00,
2013-11-04 05:28:00,51.4,46.8,30.26,NE,45,0.0,4.0,84,0.00,,,0.00,0.0,meteohub,2013-11-04 10:28:00,
2013-11-04 05:33:00,51.4,47.1,30.26,NE,46,0.0,6.0,85,0.00,,,0.00,0.0,meteohub,2013-11-04 10:33:00,
2013-11-04 05:38:00,51.4,47.1,30.26,NE,45,0.0,6.0,85,0.00,,,0.00,0.0,meteohub,2013-11-04 10:38:00,
2013-11-04 05:43:00,51.3,46.9,30.25,NE,49,0.0,6.0,85,0.00,,,0.00,0.0,meteohub,2013-11-04 10:43:00,
2013-11-04 05:48:00,51.3,46.9,30.25,NE,44,0.0,3.0,85,0.00,,,0.00,0.0,meteohub,2013-11-04 10:48:00,
2013-11-04 05:53:00,51.3,46.9,30.25,NE,43,0.0,4.0,85,0.00,,,0.00,0.0,meteohub,2013-11-04 10:53:00,
2013-11-04 05:58:00,51.3,46.9,30.25,NE,45,0.0,4.0,85,0.00,,,0.00,0.0,meteohub,2013-11-04 10:58:00,
2013-11-04 06:03:00,51.3,46.9,30.25,NNW,346,0.0,4.0,85,0.00,,,0.00,0.0,meteohub,2013-11-04 11:03:00,
2013-11-04 06:08:00,51.1,46.8,30.25,NW,324,0.0,4.0,85,0.00,,,0.00,0.0,meteohub,2013-11-04 11:08:00,
2013-11-04 06:13:00,51.1,47.1,30.25,WNW,294,0.0,4.0,86,0.00,,,0.00,0.0,meteohub,2013-11-04 11:13:00,
2013-11-04 06:14:00,51.1,47.1,30.25,WNW,295,0.0,4.0,86,0.00,,,0.00,0.0,meteohub,2013-11-04 11:14:00,
2013-11-04 06:19:00,50.9,46.9,30.25,NNE,32,0.0,3.0,86,0.00,,,0.00,0.0,meteohub,2013-11-04 11:19:00,
2013-11-04 06:22:00,50.9,46.9,30.25,NNE,32,0.0,4.0,86,0.00,,,0.00,0.0,meteohub,2013-11-04 11:22:00,
2013-11-04 06:27:00,50.9,46.9,30.25,NNE,32,0.0,4.0,86,0.00,,,0.00,0.0,meteohub,2013-11-04 11:27:00,
2013-11-04 06:32:00,50.9,46.9,30.25,North,-999,-999.0,4.0,86,0.00,,,0.00,0.0,meteohub,2013-11-04 11:32:00,
2013-11-04 09:56:00,64.0,58.5,30.29,NE,40,6.0,15.0,82,0.00,,,0.00,564.0,meteohub,2013-11-04 14:56:00,
2013-11-04 10:01:00,64.6,58.3,30.29,NE,37,8.0,15.0,80,0.00,,,0.00,499.0,meteohub,2013-11-04 15:01:00,
2013-11-04 10:06:00,64.8,58.5,30.30,NE,55,12.0,18.0,80,0.00,,,0.00,668.0,meteohub,2013-11-04 15:06:00,
2013-11-04 10:11:00,64.9,58.6,30.30,NNE,31,4.0,18.0,80,0.00,,,0.00,635.0,meteohub,2013-11-04 15:11:00,
2013-11-04 10:16:00,65.1,58.8,30.30,NE,44,9.0,18.0,80,0.00,,,0.00,612.0,meteohub,2013-11-04 15:16:00,
2013-11-04 10:21:00,65.1,58.8,30.30,North,351,8.0,17.0,80,0.00,,,0.00,656.0,meteohub,2013-11-04 15:21:00,
2013-11-04 10:26:00,65.5,58.8,30.30,NE,41,11.0,18.0,79,0.00,,,0.00,701.0,meteohub,2013-11-04 15:26:00,
2013-11-04 10:31:00,65.5,58.5,30.30,North,0,7.0,19.0,78,0.00,,,0.00,599.0,meteohub,2013-11-04 15:31:00,
2013-11-04 10:36:00,65.5,58.8,30.30,ENE,59,9.0,19.0,79,0.00,,,0.00,775.0,meteohub,2013-11-04 15:36:00,
2013-11-04 10:41:00,65.7,58.3,30.30,NE,45,15.0,19.0,77,0.00,,,0.00,680.0,meteohub,2013-11-04 15:41:00,
2013-11-04 10:46:00,65.1,58.1,30.30,NNE,15,12.0,22.0,78,0.00,,,0.00,673.0,meteohub,2013-11-04 15:46:00,
2013-11-04 10:51:00,64.9,58.3,30.30,North,355,7.0,22.0,79,0.00,,,0.00,686.0,meteohub,2013-11-04 15:51:00,
2013-11-04 10:56:00,65.1,58.5,30.30,NE,53,7.0,22.0,79,0.00,,,0.00,700.0,meteohub,2013-11-04 15:56:00,
2013-11-04 11:02:00,65.5,58.5,30.30,ENE,71,9.0,19.0,78,0.00,,,0.00,682.0,meteohub,2013-11-04 16:02:00,
2013-11-04 11:07:00,65.5,58.1,30.30,NNE,19,11.0,19.0,77,0.00,,,0.00,687.0,meteohub,2013-11-04 16:07:00,
2013-11-04 11:12:00,65.5,58.1,30.30,North,0,14.0,21.0,77,0.00,,,0.00,694.0,meteohub,2013-11-04 16:12:00,
2013-11-04 11:17:00,65.3,57.6,30.30,East,79,10.0,21.0,76,0.00,,,0.00,691.0,meteohub,2013-11-04 16:17:00,
2013-11-04 11:22:00,65.5,58.1,30.30,NNE,15,7.0,21.0,77,0.00,,,0.00,661.0,meteohub,2013-11-04 16:22:00,
2013-11-04 11:27:00,65.7,58.3,30.30,NE,41,10.0,19.0,77,0.00,,,0.00,645.0,meteohub,2013-11-04 16:27:00,
2013-11-04 11:32:00,65.7,58.3,30.30,NNE,33,5.0,19.0,77,0.00,,,0.00,659.0,meteohub,2013-11-04 16:32:00,
2013-11-04 11:37:00,65.8,58.5,30.30,NW,326,8.0,20.0,77,0.00,,,0.00,696.0,meteohub,2013-11-04 16:37:00,
2013-11-04 11:42:00,65.8,58.5,30.30,ENE,64,5.0,20.0,77,0.00,,,0.00,705.0,meteohub,2013-11-04 16:42:00,
2013-11-04 11:47:00,65.8,58.5,30.30,NNE,15,16.0,21.0,77,0.00,,,0.00,726.0,meteohub,2013-11-04 16:47:00,
2013-11-04 11:52:00,65.7,58.3,30.30,NE,41,11.0,21.0,77,0.00,,,0.00,733.0,meteohub,2013-11-04 16:52:00,
2013-11-04 11:57:00,65.8,58.5,30.30,NE,43,9.0,21.0,77,0.00,,,0.00,679.0,meteohub,2013-11-04 16:57:00,
2013-11-04 12:02:00,65.8,58.5,30.30,NE,34,11.0,21.0,77,0.00,,,0.00,919.0,meteohub,2013-11-04 17:02:00,
2013-11-04 12:07:00,65.5,58.1,30.29,NE,48,9.0,20.0,77,0.00,,,0.00,265.0,meteohub,2013-11-04 17:07:00,
2013-11-04 12:12:00,65.8,58.5,30.29,NNE,23,11.0,24.0,77,0.00,,,0.00,916.0,meteohub,2013-11-04 17:12:00,
2013-11-04 12:17:00,65.7,57.9,30.29,NNE,22,15.0,24.0,76,0.00,,,0.00,844.0,meteohub,2013-11-04 17:17:00,
2013-11-04 12:22:00,65.5,57.7,30.29,NNE,26,3.0,18.0,76,0.00,,,0.00,244.0,meteohub,2013-11-04 17:22:00,
2013-11-04 12:27:00,65.3,57.9,30.29,ENE,63,7.0,18.0,77,0.00,,,0.00,357.0,meteohub,2013-11-04 17:27:00,
2013-11-04 12:32:00,65.5,57.7,30.29,NE,40,5.0,18.0,76,0.00,,,0.00,390.0,meteohub,2013-11-04 17:32:00,
2013-11-04 12:37:00,65.7,57.9,30.29,NNE,14,16.0,16.0,76,0.00,,,0.00,826.0,meteohub,2013-11-04 17:37:00,
2013-11-04 12:42:00,65.8,58.1,30.29,North,0,10.0,18.0,76,0.00,,,0.00,840.0,meteohub,2013-11-04 17:42:00,
2013-11-04 12:47:00,65.7,57.2,30.29,NE,46,11.0,20.0,74,0.00,,,0.00,427.0,meteohub,2013-11-04 17:47:00,
2013-11-04 12:52:00,65.3,57.2,30.29,NNE,26,13.0,22.0,75,0.00,,,0.00,860.0,meteohub,2013-11-04 17:52:00,
2013-11-04 12:57:00,65.5,57.4,30.29,NE,50,4.0,22.0,75,0.00,,,0.00,860.0,meteohub,2013-11-04 17:57:00,
2013-11-04 13:02:00,65.5,57.7,30.29,North,0,7.0,22.0,76,0.00,,,0.00,378.0,meteohub,2013-11-04 18:02:00,
2013-11-04 13:07:00,65.5,57.4,30.29,ENE,76,11.0,22.0,75,0.00,,,0.00,302.0,meteohub,2013-11-04 18:07:00,
2013-11-04 13:12:00,65.7,57.2,30.28,NE,50,6.0,22.0,74,0.00,,,0.00,858.0,meteohub,2013-11-04 18:12:00,
2013-11-04 13:17:00,65.8,57.0,30.29,NE,46,8.0,23.0,73,0.00,,,0.00,789.0,meteohub,2013-11-04 18:17:00,
2013-11-04 13:22:00,65.1,56.7,30.29,NE,43,9.0,23.0,74,0.00,,,0.00,403.0,meteohub,2013-11-04 18:22:00,
2013-11-04 13:27:00,64.9,56.5,30.28,NNE,20,17.0,24.0,74,0.00,,,0.00,737.0,meteohub,2013-11-04 18:27:00,
2013-11-04 13:32:00,65.1,56.7,30.28,NNE,32,6.0,24.0,74,0.00,,,0.00,301.0,meteohub,2013-11-04 18:32:00,
2013-11-04 13:37:00,65.1,56.3,30.29,NNE,13,11.0,18.0,73,0.00,,,0.00,652.0,meteohub,2013-11-04 18:37:00,
2013-11-04 13:42:00,65.3,56.5,30.28,NE,39,14.0,25.0,73,0.00,,,0.00,629.0,meteohub,2013-11-04 18:42:00,
2013-11-04 13:47:00,65.5,57.0,30.28,ENE,75,17.0,25.0,74,0.00,,,0.00,599.0,meteohub,2013-11-04 18:47:00,
2013-11-04 13:52:00,65.5,56.3,30.28,ENE,74,5.0,25.0,72,0.00,,,0.00,694.0,meteohub,2013-11-04 18:52:00,
2013-11-04 13:57:00,64.9,55.8,30.28,NNE,30,13.0,20.0,72,0.00,,,0.00,512.0,meteohub,2013-11-04 18:57:00,
2013-11-04 14:02:00,65.3,56.5,30.28,NNE,29,11.0,20.0,73,0.00,,,0.00,394.0,meteohub,2013-11-04 19:02:00,
2013-11-04 14:07:00,65.1,55.4,30.28,NNE,14,13.0,20.0,71,0.00,,,0.00,555.0,meteohub,2013-11-04 19:07:00,
2013-11-04 14:12:00,64.9,55.8,30.28,NE,56,8.0,25.0,72,0.00,,,0.00,548.0,meteohub,2013-11-04 19:12:00,
2013-11-04 14:17:00,65.5,55.8,30.28,NNE,28,12.0,25.0,71,0.00,,,0.00,519.0,meteohub,2013-11-04 19:17:00,
2013-11-04 14:22:00,65.7,55.9,30.27,NE,34,8.0,24.0,71,0.00,,,0.00,452.0,meteohub,2013-11-04 19:22:00,
2013-11-04 14:27:00,65.7,55.9,30.28,NNE,32,11.0,24.0,71,0.00,,,0.00,399.0,meteohub,2013-11-04 19:27:00,
2013-11-04 14:32:00,65.5,55.8,30.27,NNE,30,4.0,17.0,71,0.00,,,0.00,418.0,meteohub,2013-11-04 19:32:00,
2013-11-04 14:37:00,65.3,55.6,30.27,NNE,30,15.0,21.0,71,0.00,,,0.00,446.0,meteohub,2013-11-04 19:37:00,
2013-11-04 14:42:00,65.1,55.9,30.27,NNE,30,12.0,21.0,72,0.00,,,0.00,431.0,meteohub,2013-11-04 19:42:00,
2013-11-04 14:47:00,65.5,56.3,30.28,NNE,22,8.0,21.0,72,0.00,,,0.00,244.0,meteohub,2013-11-04 19:47:00,
2013-11-04 14:52:00,65.5,56.3,30.28,NNE,21,15.0,21.0,72,0.00,,,0.00,434.0,meteohub,2013-11-04 19:52:00,
2013-11-04 14:57:00,65.3,56.1,30.28,ENE,57,8.0,17.0,72,0.00,,,0.00,457.0,meteohub,2013-11-04 19:57:00,
2013-11-04 15:02:00,64.9,56.1,30.28,ENE,75,12.0,17.0,73,0.00,,,0.00,406.0,meteohub,2013-11-04 20:02:00,
2013-11-04 15:07:00,64.8,55.6,30.28,NNE,14,8.0,20.0,72,0.00,,,0.00,330.0,meteohub,2013-11-04 20:07:00,
2013-11-04 15:12:00,64.6,55.8,30.28,NNE,16,6.0,24.0,73,0.00,,,0.00,107.0,meteohub,2013-11-04 20:12:00,
2013-11-04 15:17:00,64.2,55.4,30.28,NE,50,13.0,24.0,73,0.00,,,0.00,141.0,meteohub,2013-11-04 20:17:00,
2013-11-04 15:22:00,64.2,55.4,30.28,NE,37,18.0,24.0,73,0.00,,,0.00,288.0,meteohub,2013-11-04 20:22:00,
2013-11-04 15:27:00,64.4,55.9,30.27,NE,40,9.0,20.0,74,0.00,,,0.00,308.0,meteohub,2013-11-04 20:27:00,
2013-11-04 15:32:00,64.0,55.6,30.27,NNE,32,9.0,20.0,74,0.00,,,0.00,257.0,meteohub,2013-11-04 20:32:00,
2013-11-04 15:37:00,64.0,55.6,30.28,NNE,17,15.0,18.0,74,0.00,,,0.00,272.0,meteohub,2013-11-04 20:37:00,
2013-11-04 15:42:00,63.9,55.4,30.27,NE,48,8.0,19.0,74,0.00,,,0.00,102.0,meteohub,2013-11-04 20:42:00,
2013-11-04 15:46:00,63.7,55.6,30.27,NE,40,8.0,23.0,75,0.00,,,0.00,193.0,meteohub,2013-11-04 20:46:00,
2013-11-04 15:51:00,63.7,55.6,30.27,NE,39,11.0,24.0,75,0.00,,,0.00,134.0,meteohub,2013-11-04 20:51:00,
2013-11-04 15:56:00,63.7,55.6,30.27,NNE,15,9.0,24.0,75,0.00,,,0.00,135.0,meteohub,2013-11-04 20:56:00,
2013-11-04 16:02:00,63.5,55.0,30.27,NE,42,11.0,18.0,74,0.00,,,0.00,95.0,meteohub,2013-11-04 21:02:00,
2013-11-04 16:06:00,63.3,54.9,30.27,NE,41,7.0,19.0,74,0.00,,,0.00,79.0,meteohub,2013-11-04 21:06:00,
2013-11-04 16:11:00,63.3,54.9,30.27,NE,54,7.0,19.0,74,0.00,,,0.00,67.0,meteohub,2013-11-04 21:11:00,
2013-11-04 16:16:00,63.3,54.9,30.27,ENE,74,13.0,17.0,74,0.00,,,0.00,58.0,meteohub,2013-11-04 21:16:00,
2013-11-04 16:22:00,63.3,54.9,30.27,ENE,57,3.0,17.0,74,0.00,,,0.00,54.0,meteohub,2013-11-04 21:22:00,
2013-11-04 16:27:00,63.1,54.7,30.27,North,351,5.0,15.0,74,0.00,,,0.00,49.0,meteohub,2013-11-04 21:27:00,
2013-11-04 16:32:00,63.0,54.5,30.27,ENE,65,4.0,15.0,74,0.00,,,0.00,42.0,meteohub,2013-11-04 21:32:00,
2013-11-04 16:37:00,63.0,54.5,30.27,NNE,17,10.0,14.0,74,0.00,,,0.00,40.0,meteohub,2013-11-04 21:37:00,
2013-11-04 16:42:00,62.8,54.0,30.27,NNE,26,7.0,17.0,73,0.00,,,0.00,35.0,meteohub,2013-11-04 21:42:00,
2013-11-04 16:47:00,62.6,53.8,30.27,NE,49,7.0,17.0,73,0.00,,,0.00,35.0,meteohub,2013-11-04 21:47:00,
2013-11-04 16:52:00,62.6,53.4,30.28,ENE,70,13.0,18.0,72,0.00,,,0.00,33.0,meteohub,2013-11-04 21:52:00,
2013-11-04 16:57:00,62.4,52.9,30.28,NE,34,15.0,18.0,71,0.00,,,0.00,30.0,meteohub,2013-11-04 21:57:00,
2013-11-04 17:02:00,62.6,52.7,30.27,NE,40,12.0,17.0,70,0.00,,,0.00,28.0,meteohub,2013-11-04 22:02:00,
2013-11-04 17:07:00,62.4,52.9,30.28,NE,35,8.0,17.0,71,0.00,,,0.00,23.0,meteohub,2013-11-04 22:07:00,
2013-11-04 17:12:00,62.2,52.3,30.28,NE,34,7.0,17.0,70,0.00,,,0.00,23.0,meteohub,2013-11-04 22:12:00,
2013-11-04 17:17:00,62.2,52.3,30.28,NNE,14,5.0,17.0,70,0.00,,,0.00,19.0,meteohub,2013-11-04 22:17:00,
2013-11-04 17:22:00,62.1,51.8,30.28,NE,53,3.0,17.0,69,0.00,,,0.00,16.0,meteohub,2013-11-04 22:22:00,
2013-11-04 17:27:00,62.1,52.2,30.29,ENE,67,8.0,17.0,70,0.00,,,0.00,11.0,meteohub,2013-11-04 22:27:00,
2013-11-04 17:32:00,61.9,52.0,30.29,NE,45,5.0,16.0,70,0.00,,,0.00,5.0,meteohub,2013-11-04 22:32:00,
2013-11-04 17:37:00,61.7,51.8,30.29,ENE,59,10.0,13.0,70,0.00,,,0.00,5.0,meteohub,2013-11-04 22:37:00,
2013-11-04 17:42:00,61.5,51.6,30.29,NE,36,12.0,12.0,70,0.00,,,0.00,5.0,meteohub,2013-11-04 22:42:00,
2013-11-04 17:47:00,61.5,52.3,30.29,NE,49,5.0,15.0,72,0.00,,,0.00,0.0,meteohub,2013-11-04 22:47:00,
2013-11-04 17:52:00,61.3,51.8,30.29,North,9,8.0,15.0,71,0.00,,,0.00,0.0,meteohub,2013-11-04 22:52:00,
2013-11-04 17:57:00,61.3,51.8,30.29,NNE,17,5.0,15.0,71,0.00,,,0.00,0.0,meteohub,2013-11-04 22:57:00,
2013-11-04 18:02:00,61.3,52.7,30.30,NE,49,5.0,13.0,73,0.00,,,0.00,0.0,meteohub,2013-11-04 23:02:00,
2013-11-04 18:07:00,61.3,52.7,30.29,NNE,28,3.0,14.0,73,0.00,,,0.00,0.0,meteohub,2013-11-04 23:07:00,
2013-11-04 18:12:00,61.2,52.5,30.30,NE,38,2.0,14.0,73,0.00,,,0.00,0.0,meteohub,2013-11-04 23:12:00,
2013-11-04 18:17:00,61.2,52.9,30.30,NE,51,5.0,14.0,74,0.00,,,0.00,0.0,meteohub,2013-11-04 23:17:00,
2013-11-04 18:22:00,61.2,52.9,30.30,NNE,21,2.0,12.0,74,0.00,,,0.00,0.0,meteohub,2013-11-04 23:22:00,
2013-11-04 18:27:00,61.0,52.7,30.30,NNW,348,6.0,12.0,74,0.00,,,0.00,0.0,meteohub,2013-11-04 23:27:00,
2013-11-04 18:32:00,61.0,53.1,30.30,NE,45,8.0,11.0,75,0.00,,,0.00,0.0,meteohub,2013-11-04 23:32:00,
2013-11-04 18:37:00,61.0,52.7,30.30,NNE,15,2.0,11.0,74,0.00,,,0.00,0.0,meteohub,2013-11-04 23:37:00,
2013-11-04 18:42:00,61.0,52.7,30.30,NNE,30,2.0,13.0,74,0.00,,,0.00,0.0,meteohub,2013-11-04 23:42:00,
2013-11-04 18:47:00,61.0,52.7,30.30,NE,40,4.0,13.0,74,0.00,,,0.00,0.0,meteohub,2013-11-04 23:47:00,
2013-11-04 18:52:00,61.0,52.7,30.30,NNW,327,4.0,13.0,74,0.00,,,0.00,0.0,meteohub,2013-11-04 23:52:00,
2013-11-04 18:57:00,61.0,52.7,30.30,NNE,18,6.0,9.0,74,0.00,,,0.00,0.0,meteohub,2013-11-04 23:57:00,
2013-11-04 19:02:00,61.0,52.7,30.30,ENE,61,7.0,10.0,74,0.00,,,0.00,0.0,meteohub,2013-11-05 00:02:00,
2013-11-04 19:07:00,61.0,52.7,30.30,NNE,13,5.0,10.0,74,0.00,,,0.00,0.0,meteohub,2013-11-05 00:07:00,
2013-11-04 19:12:00,61.0,52.7,30.30,ENE,71,7.0,9.0,74,0.00,,,0.00,0.0,meteohub,2013-11-05 00:12:00,
2013-11-04 19:17:00,61.0,52.7,30.30,NNE,30,0.0,9.0,74,0.00,,,0.00,0.0,meteohub,2013-11-05 00:17:00,
2013-11-04 19:22:00,61.2,53.2,30.30,NE,49,4.0,9.0,75,0.00,,,0.00,0.0,meteohub,2013-11-05 00:22:00,
2013-11-04 19:27:00,61.2,52.9,30.30,NE,37,4.0,12.0,74,0.00,,,0.00,0.0,meteohub,2013-11-05 00:27:00,
2013-11-04 19:32:00,61.3,53.1,30.30,North,355,5.0,12.0,74,0.00,,,0.00,0.0,meteohub,2013-11-05 00:32:00,
2013-11-04 19:37:00,61.5,53.2,30.30,NNE,17,0.0,12.0,74,0.00,,,0.00,0.0,meteohub,2013-11-05 00:37:00,
2013-11-04 19:42:00,61.7,52.9,30.30,NE,39,4.0,12.0,73,0.00,,,0.00,0.0,meteohub,2013-11-05 00:42:00,
2013-11-04 19:47:00,61.9,53.4,30.30,NE,49,3.0,12.0,74,0.00,,,0.00,0.0,meteohub,2013-11-05 00:47:00,
2013-11-04 19:52:00,61.9,53.1,30.30,NE,51,10.0,12.0,73,0.00,,,0.00,0.0,meteohub,2013-11-05 00:52:00,
2013-11-04 19:57:00,61.9,53.1,30.30,NNE,29,1.0,13.0,73,0.00,,,0.00,0.0,meteohub,2013-11-05 00:57:00,
2013-11-04 20:02:00,62.1,53.2,30.30,NE,34,4.0,13.0,73,0.00,,,0.00,0.0,meteohub,2013-11-05 01:02:00,
2013-11-04 20:07:00,62.2,53.1,30.30,NNE,21,2.0,14.0,72,0.00,,,0.00,0.0,meteohub,2013-11-05 01:07:00,
2013-11-04 20:12:00,62.2,53.1,30.30,NE,50,0.0,14.0,72,0.00,,,0.00,0.0,meteohub,2013-11-05 01:12:00,
2013-11-04 20:17:00,62.4,53.2,30.30,North,5,6.0,14.0,72,0.00,,,0.00,0.0,meteohub,2013-11-05 01:17:00,
2013-11-04 20:22:00,62.4,53.2,30.30,NNE,33,8.0,13.0,72,0.00,,,0.00,0.0,meteohub,2013-11-05 01:22:00,
2013-11-04 20:27:00,62.6,53.8,30.30,NE,36,6.0,14.0,73,0.00,,,0.00,0.0,meteohub,2013-11-05 01:27:00,
2013-11-04 20:32:00,62.6,53.8,30.30,NE,39,11.0,19.0,73,0.00,,,0.00,0.0,meteohub,2013-11-05 01:32:00,
2013-11-04 20:37:00,62.6,54.5,30.31,NNE,28,0.0,19.0,75,0.00,,,0.00,0.0,meteohub,2013-11-05 01:37:00,
2013-11-04 20:42:00,62.4,54.7,30.30,NE,42,7.0,19.0,76,0.00,,,0.00,0.0,meteohub,2013-11-05 01:42:00,
2013-11-04 20:47:00,62.4,55.0,30.31,ENE,72,11.0,15.0,77,0.00,,,0.00,0.0,meteohub,2013-11-05 01:47:00,
2013-11-04 20:52:00,62.6,55.6,30.30,NNE,31,9.0,16.0,78,0.00,,,0.00,0.0,meteohub,2013-11-05 01:52:00,
2013-11-04 20:57:00,62.4,55.4,30.30,NE,40,7.0,17.0,78,0.00,,,0.00,0.0,meteohub,2013-11-05 01:57:00,
2013-11-04 21:02:00,62.4,55.8,30.31,NE,46,5.0,17.0,79,0.00,,,0.00,0.0,meteohub,2013-11-05 02:02:00,
2013-11-04 21:07:00,62.4,55.8,30.30,NNE,22,8.0,17.0,79,0.00,,,0.00,0.0,meteohub,2013-11-05 02:07:00,
2013-11-04 21:12:00,62.4,56.1,30.30,NE,35,6.0,17.0,80,0.00,,,0.00,0.0,meteohub,2013-11-05 02:12:00,
2013-11-04 21:17:00,62.4,56.1,30.30,North,0,12.0,14.0,80,0.00,,,0.00,0.0,meteohub,2013-11-05 02:17:00,
2013-11-04 21:22:00,62.4,56.1,30.30,ENE,61,4.0,19.0,80,0.00,,,0.00,0.0,meteohub,2013-11-05 02:22:00,
2013-11-04 21:27:00,62.4,56.1,30.30,North,5,6.0,19.0,80,0.00,,,0.00,0.0,meteohub,2013-11-05 02:27:00,
2013-11-04 21:32:00,62.4,56.1,30.30,NE,39,6.0,19.0,80,0.00,,,0.00,0.0,meteohub,2013-11-05 02:32:00,
2013-11-04 21:37:00,62.6,56.3,30.30,NNE,32,11.0,18.0,80,0.00,,,0.00,0.0,meteohub,2013-11-05 02:37:00,
2013-11-04 21:42:00,62.8,56.5,30.30,NE,44,4.0,18.0,80,0.00,,,0.00,0.0,meteohub,2013-11-05 02:42:00,
2013-11-04 21:47:00,62.8,56.5,30.30,NE,45,5.0,15.0,80,0.00,,,0.00,0.0,meteohub,2013-11-05 02:47:00,
2013-11-04 21:52:00,63.0,56.7,30.30,NE,51,13.0,15.0,80,0.00,,,0.00,0.0,meteohub,2013-11-05 02:52:00,
2013-11-04 21:57:00,63.0,56.7,30.30,ENE,69,8.0,16.0,80,0.00,,,0.00,0.0,meteohub,2013-11-05 02:57:00,
2013-11-04 22:02:00,63.1,56.8,30.30,NE,40,10.0,16.0,80,0.00,,,0.00,0.0,meteohub,2013-11-05 03:02:00,
2013-11-04 22:07:00,63.1,56.8,30.30,ENE,59,7.0,17.0,80,0.00,,,0.00,0.0,meteohub,2013-11-05 03:07:00,
2013-11-04 22:12:00,62.8,55.4,30.30,WNW,288,1.0,17.0,77,0.00,,,0.00,0.0,meteohub,2013-11-05 03:12:00,
2013-11-04 22:17:00,61.5,53.6,30.30,NE,49,5.0,17.0,75,0.00,,,0.00,0.0,meteohub,2013-11-05 03:17:00,
2013-11-04 22:22:00,60.3,52.7,30.30,North,349,0.0,11.0,76,0.00,,,0.00,0.0,meteohub,2013-11-05 03:22:00,
2013-11-04 22:27:00,59.5,52.7,30.30,NE,55,0.0,6.0,78,0.00,,,0.00,0.0,meteohub,2013-11-05 03:27:00,
2013-11-04 22:32:00,59.2,52.0,30.30,ESE,120,0.0,6.0,77,0.00,,,0.00,0.0,meteohub,2013-11-05 03:32:00,
2013-11-04 22:37:00,59.0,51.4,30.30,WNW,284,0.0,7.0,76,0.00,,,0.00,0.0,meteohub,2013-11-05 03:37:00,
2013-11-04 22:42:00,58.6,51.1,30.30,NE,39,2.0,7.0,76,0.00,,,0.00,0.0,meteohub,2013-11-05 03:42:00,
2013-11-04 22:47:00,58.3,51.1,30.30,NNE,28,0.0,8.0,77,0.00,,,0.00,0.0,meteohub,2013-11-05 03:47:00,
2013-11-04 22:52:00,58.1,50.5,30.30,WNW,300,2.0,8.0,76,0.00,,,0.00,0.0,meteohub,2013-11-05 03:52:00,
2013-11-04 22:57:00,57.7,50.2,30.30,WNW,290,5.0,8.0,76,0.00,,,0.00,0.0,meteohub,2013-11-05 03:57:00,
2013-11-04 23:02:00,57.6,50.0,30.30,NNW,338,0.0,6.0,76,0.00,,,0.00,0.0,meteohub,2013-11-05 04:02:00,
2013-11-04 23:07:00,57.6,50.0,30.30,NW,305,0.0,7.0,76,0.00,,,0.00,0.0,meteohub,2013-11-05 04:07:00,
2013-11-04 23:12:00,57.6,50.4,30.30,West,281,1.0,7.0,77,0.00,,,0.00,0.0,meteohub,2013-11-05 04:12:00,
2013-11-04 23:17:00,57.6,50.4,30.30,NNW,347,1.0,7.0,77,0.00,,,0.00,0.0,meteohub,2013-11-05 04:17:00,
2013-11-04 23:22:00,57.6,50.4,30.30,NW,314,0.0,7.0,77,0.00,,,0.00,0.0,meteohub,2013-11-05 04:22:00,
2013-11-04 23:27:00,57.7,50.5,30.30,NE,42,0.0,7.0,77,0.00,,,0.00,0.0,meteohub,2013-11-05 04:27:00,
2013-11-04 23:32:00,57.9,50.7,30.30,NNE,30,2.0,4.0,77,0.00,,,0.00,0.0,meteohub,2013-11-05 04:32:00,
2013-11-04 23:37:00,57.9,50.7,30.29,NNE,30,2.0,4.0,77,0.00,,,0.00,0.0,meteohub,2013-11-05 04:37:00,
2013-11-04 23:42:00,57.9,50.7,30.29,North,-999,-999.0,4.0,77,0.00,,,0.00,0.0,meteohub,2013-11-05 04:42:00,